Weather in Myshako

Russia / Krasnodar Krai     44°39′26″N   37°45′37″E
temp.,
°C
wind,
m/s
gust,
m/s
humid.,
%
clouds,
%
prec.,
mm/h
press.,
hPa
HPBL,
m
9 may, sun
sun900:00+13sw1296100 0.6 1011158
03:00+12nw4896100 1.4 1012759
06:00+9nnw41095100 1.9 1014645
09:00+9nnw5888100 3.5 1017979
12:00+10nnw61064100 0.5 10191384
15:00+13nw79435 0.5 10201926
18:00+12nw58515 0.0 10221904
21:00+7wnw13635 0.0 102463
10 may, mon
mon1000:00+7wnw23655 0.0 102570
03:00+7nw236838 0.1 102554
06:00+6nw22741 0.3 102549
09:00+11nnw464651 0.4 10241810
12:00+12nw5642100 0.1 10242082
15:00+13nw663814 0.1 10232191
18:00+11wnw454799 0.0 10221435
21:00+8wsw236397 0.0 102294
11 may, tue
tue1100:00+9wsw41064100 0.0 1020591
03:00+9wsw61173100 0.4 1017774
06:00+10wsw71172100 0.3 10161134
09:00+10w71172100 1.1 10161589
12:00+11wsw71159100 0.3 10151533
15:00+8wsw61089100 1.3 10161113
18:00+9ssw61092100 4.1 1016906
21:00+9ssw61093100 6.3 1016850
12 may, wed
wed1200:00+9s61190100 0.9 1016794
03:00+10s5982100 1.1 1015620
06:00+10s4877100 0.1 1016557
09:00+13sse455642 0.1 1015860
12:00+16s344133 0.0 1015800
15:00+18s13404 0.0 1014901
18:00+18ene24580 0.0 1014667
21:00+12ne22870 0.0 101320
13 may, thu
thu1300:00+12nne228156 0.0 101323
03:00+12ne11690 0.0 101214
06:00+13nne226092 0.0 101223
09:00+21ne2341100 0.0 1011196
12:00+25ne2333100 0.0 1010454
15:00+27e23360 0.0 1010918
18:00+23ese12540 0.0 1010183
21:00+18n11810 0.0 101113